EW0923 Weather Reports


Display with metric or nautical units.
time (UTC)temp
F
wind
direction
speed
MPH
gust
MPH
rain 1hr
in
rain 24hr
in
rain mn
in
humidity
%
barometer
mb
20260831034028 74 0 0.0 1.0 0.07 0.07 0.07 92 1018.2
20260831033528 74 0 0.0 1.0 0.07 0.07 0.07 92 1018.2
20260831033053 74 0 0.0 1.0 0.07 0.07 0.07 92 1018.1
20260831032525 74 145 0.0 1.0 0.06 0.06 0.06 92 1018.1
20260831032030 75 0 0.0 1.0 0.06 0.06 0.06 91 1018.1
20260831031541 75 81 0.0 1.0 0.05 0.05 0.05 90 1018.1
20260831031032 75 0 0.0 0.0 0.00 0.00 0.00 89 1018.1
20260831030527 75 0 0.0 2.0 0.00 0.00 0.00 89 1018.0
20260831030050 75 0 0.0 2.0 0.00 0.00 0.00 89 1018.0
20260831025524 75 224 0.0 2.0 0.00 0.00 0.00 88 1017.9
20260831025025 75 0 0.0 2.0 0.00 0.00 0.00 88 1017.9
20260831024552 75 177 0.0 3.0 0.00 0.00 0.00 88 1018.1
20260831024028 75 181 1.0 3.0 0.00 0.00 0.00 88 1018.0
20260831023524 75 0 0.0 2.0 0.00 0.00 0.00 88 1018.0
20260831023054 75 0 0.0 2.0 0.00 0.00 0.00 87 1018.2
20260831022528 76 219 0.0 3.0 0.00 0.00 0.00 87 1018.1
20260831022027 76 0 0.0 3.0 0.00 0.00 0.00 87 1018.0
20260831021554 76 0 0.0 2.0 0.00 0.00 0.00 87 1018.0
20260831021031 76 224 0.0 3.0 0.00 0.00 0.00 87 1018.2
20260831020529 76 208 1.0 3.0 0.00 0.00 0.00 86 1018.2
20260831020108 76 236 0.0 3.0 0.00 0.00 0.00 86 1018.2
20260831015531 76 261 0.0 3.0 0.00 0.00 0.00 86 1018.2
20260831015028 76 0 1.0 4.0 0.00 0.00 0.00 85 1018.2
20260831014557 76 173 1.0 4.0 0.00 0.00 0.00 85 1018.3
20260831014028 77 217 1.0 4.0 0.00 0.00 0.00 85 1018.3
20260831013529 77 0 0.0 2.0 0.00 0.00 0.00 85 1018.3
20260831013056 77 226 0.0 2.0 0.00 0.00 0.00 84 1018.4
20260831012529 77 0 0.0 2.0 0.00 0.00 0.00 84 1018.4
20260831012028 77 257 0.0 3.0 0.00 0.00 0.00 83 1018.3
20260831011602 77 0 0.0 3.0 0.00 0.00 0.00 83 1018.2
20260831011028 77 171 1.0 3.0 0.00 0.00 0.00 83 1018.3
20260831010530 77 215 0.0 3.0 0.00 0.00 0.00 83 1018.3
20260831010049 77 225 1.0 3.0 0.00 0.00 0.00 82 1018.3
20260831005529 77 175 0.0 4.0 0.00 0.00 0.00 82 1018.2
20260831005030 77 252 1.0 5.0 0.00 0.00 0.00 82 1018.1
20260831004550 78 0 1.0 5.0 0.00 0.00 0.00 82 1018.1
20260831004030 78 242 1.0 3.0 0.00 0.00 0.00 81 1018.0
20260831003529 78 242 1.0 3.0 0.00 0.00 0.00 81 1018.0
20260831003056 78 239 0.0 2.0 0.00 0.00 0.00 81 1018.0
20260831002528 78 0 1.0 3.0 0.00 0.00 0.00 81 1018.0
20260831002031 78 227 0.0 3.0 0.00 0.00 0.00 80 1017.9
20260831001554 78 0 0.0 3.0 0.00 0.00 0.00 80 1017.9
20260831001029 78 260 0.0 3.0 0.00 0.00 0.00 79 1017.8
20260831000529 78 212 0.0 3.0 0.00 0.00 0.00 79 1017.8
20260831000047 79 153 0.0 2.0 0.00 0.00 0.00 78 1017.9
20260830235529 79 223 0.0 2.0 0.00 0.00 0.00 78 1017.8
20260830235028 79 253 0.0 1.0 0.00 0.00 0.00 78 1017.8
20260830234548 79 0 0.0 1.0 0.00 0.00 0.00 77 1017.8
20260830234028 79 0 0.0 1.0 0.00 0.00 0.00 76 1017.8
20260830233530 80 0 0.0 2.0 0.00 0.00 0.00 75 1017.8
20260830233047 80 0 0.0 3.0 0.00 0.00 0.00 74 1017.7
20260830232530 80 0 0.0 3.0 0.00 0.00 0.00 74 1017.9
20260830232030 80 161 0.0 3.0 0.00 0.00 0.00 74 1017.9
20260830231547 80 0 0.0 3.0 0.00 0.00 0.00 74 1017.9
20260830231029 80 0 0.0 1.0 0.00 0.00 0.00 74 1017.8
20260830230528 81 0 0.0 1.0 0.00 0.00 0.00 73 1017.9
20260830230046 81 0 0.0 3.0 0.00 0.00 0.00 72 1017.9
20260830225527 81 251 0.0 3.0 0.00 0.00 0.00 71 1017.8
20260830225030 81 248 0.0 2.0 0.00 0.00 0.00 71 1017.8
20260830224553 81 253 0.0 3.0 0.00 0.00 0.00 71 1017.8
20260830224028 82 0 0.0 3.0 0.00 0.00 0.00 70 1017.7
20260830223525 82 271 1.0 5.0 0.00 0.00 0.00 69 1017.8
20260830223052 82 233 0.0 5.0 0.00 0.00 0.00 69 1017.7
20260830222523 82 259 0.0 3.0 0.00 0.00 0.00 69 1017.7
20260830222024 82 277 0.0 3.0 0.00 0.00 0.00 69 1017.8
20260830221549 82 269 1.0 3.0 0.00 0.00 0.00 68 1017.8
20260830221026 82 0 1.0 4.0 0.00 0.00 0.00 68 1017.7
20260830220525 82 0 2.0 4.0 0.00 0.00 0.00 67 1017.6
20260830215525 83 300 1.0 5.0 0.00 0.00 0.00 67 1017.6
20260830215025 83 257 1.0 5.0 0.00 0.00 0.00 66 1017.5
20260830214550 83 321 1.0 4.0 0.00 0.00 0.00 67 1017.6
20260830214028 83 277 1.0 7.0 0.00 0.00 0.00 67 1017.6
20260830213527 82 0 2.0 8.0 0.00 0.00 0.00 68 1017.6
20260830213052 82 315 1.0 8.0 0.00 0.00 0.00 68 1017.8
20260830212524 82 267 1.0 7.0 0.00 0.00 0.00 67 1017.7
20260830212024 82 238 2.0 7.0 0.00 0.00 0.00 67 1017.7
20260830211554 82 304 2.0 6.0 0.00 0.00 0.00 67 1017.7
20260830211026 82 285 2.0 8.0 0.00 0.00 0.00 67 1017.9
20260830210524 83 275 1.0 8.0 0.00 0.00 0.00 66 1017.8
20260830210055 82 223 1.0 8.0 0.00 0.00 0.00 67 1017.8
20260830205527 82 265 1.0 7.0 0.00 0.00 0.00 67 1017.7
20260830205024 82 299 1.0 4.0 0.00 0.00 0.00 67 1017.7
20260830204556 82 275 1.0 4.0 0.00 0.00 0.00 67 1017.6
20260830204026 82 0 0.0 5.0 0.00 0.00 0.00 67 1017.7
20260830203527 82 0 1.0 5.0 0.00 0.00 0.00 67 1017.8
20260830203052 82 232 1.0 5.0 0.00 0.00 0.00 66 1017.8
20260830202524 82 277 0.0 2.0 0.00 0.00 0.00 67 1017.9
20260830202026 82 295 1.0 2.0 0.00 0.00 0.00 67 1017.9
20260830201547 82 269 0.0 3.0 0.00 0.00 0.00 68 1017.9
20260830201025 82 262 0.0 7.0 0.00 0.00 0.00 68 1018.0
20260830200527 82 276 2.0 7.0 0.00 0.00 0.00 67 1018.0
20260830200058 82 276 2.0 13.0 0.00 0.00 0.00 66 1018.0
20260830195528 82 282 4.0 13.0 0.00 0.00 0.00 66 1018.1
20260830195028 83 258 2.0 6.0 0.00 0.00 0.00 66 1018.2
20260830194554 83 254 1.0 8.0 0.00 0.00 0.00 66 1018.2
20260830194029 83 302 2.0 11.0 0.00 0.00 0.00 65 1018.3
20260830193526 83 285 3.0 11.0 0.00 0.00 0.00 64 1018.3
20260830193048 84 250 3.0 11.0 0.00 0.00 0.00 64 1018.3
20260830192525 84 277 3.0 9.0 0.00 0.00 0.00 64 1018.4
20260830192025 83 291 2.0 9.0 0.00 0.00 0.00 66 1018.5
20260830191547 83 278 2.0 9.0 0.00 0.00 0.00 65 1018.5
20260830191029 83 273 3.0 9.0 0.00 0.00 0.00 63 1018.7
20260830190531 83 271 2.0 9.0 0.00 0.00 0.00 63 1018.7
20260830190054 83 137 1.0 9.0 0.00 0.00 0.00 65 1018.8
20260830185529 83 279 2.0 9.0 0.00 0.00 0.00 64 1018.8
20260830185028 84 291 4.0 8.0 0.00 0.00 0.00 64 1018.8
20260830184603 83 294 2.0 7.0 0.00 0.00 0.00 65 1018.9
20260830184030 83 269 3.0 8.0 0.00 0.00 0.00 63 1018.9
20260830183531 83 265 2.0 8.0 0.00 0.00 0.00 65 1019.0
20260830183050 83 237 2.0 9.0 0.00 0.00 0.00 66 1019.2
20260830182529 83 267 2.0 9.0 0.00 0.00 0.00 65 1019.1
20260830182034 83 300 2.0 7.0 0.00 0.00 0.00 66 1019.1
20260830181547 83 287 1.0 9.0 0.00 0.00 0.00 66 1019.2
20260830181030 82 252 3.0 10.0 0.00 0.00 0.00 67 1019.2
20260830180531 82 240 3.0 12.0 0.00 0.00 0.00 67 1019.2
20260830180048 83 254 2.0 12.0 0.00 0.00 0.00 66 1019.3
20260830175528 83 223 3.0 12.0 0.00 0.00 0.00 65 1019.4
20260830175032 83 294 1.0 6.0 0.00 0.00 0.00 67 1019.5
20260830174558 82 209 1.0 9.0 0.00 0.00 0.00 66 1019.5
20260830174032 82 315 3.0 14.0 0.00 0.00 0.00 67 1019.6
20260830173536 82 147 4.0 14.0 0.00 0.00 0.00 65 1019.6
20260830173051 83 261 3.0 10.0 0.00 0.00 0.00 64 1019.7
20260830172530 82 252 2.0 10.0 0.00 0.00 0.00 66 1019.7
20260830172028 82 229 3.0 10.0 0.00 0.00 0.00 66 1019.9
20260830171548 82 262 1.0 7.0 0.00 0.00 0.00 65 1020.0
20260830171030 82 283 2.0 9.0 0.00 0.00 0.00 67 1020.1
20260830170528 82 159 3.0 9.0 0.00 0.00 0.00 64 1020.2
20260830170047 82 202 4.0 9.0 0.00 0.00 0.00 65 1020.3
20260830165533 81 271 1.0 7.0 0.00 0.00 0.00 65 1020.3
20260830165028 81 242 2.0 9.0 0.00 0.00 0.00 67 1020.3
20260830164549 81 256 2.0 9.0 0.00 0.00 0.00 67 1020.5
20260830164028 81 242 2.0 7.0 0.00 0.00 0.00 67 1020.6
20260830163525 81 259 2.0 8.0 0.00 0.00 0.00 66 1020.5
20260830163051 81 288 2.0 12.0 0.00 0.00 0.00 65 1020.5
20260830162530 81 284 3.0 12.0 0.00 0.00 0.00 64 1020.6
20260830162030 81 162 3.0 10.0 0.00 0.00 0.00 65 1020.6
20260830161614 81 243 2.0 8.0 0.00 0.00 0.00 63 1020.6
20260830161029 81 281 1.0 7.0 0.00 0.00 0.00 64 1020.7
20260830160529 81 214 4.0 8.0 0.00 0.00 0.00 64 1020.8
20260830160057 81 288 3.0 8.0 0.00 0.00 0.00 63 1020.8
20260830155529 81 100 2.0 10.0 0.00 0.00 0.00 64 1020.7
20260830155030 81 289 2.0 10.0 0.00 0.00 0.00 64 1020.7
20260830154550 81 263 3.0 10.0 0.00 0.00 0.00 67 1020.8
20260830154027 80 225 3.0 12.0 0.00 0.00 0.00 67 1020.7
20260830153528 80 162 3.0 12.0 0.00 0.00 0.00 68 1020.7
20260830153056 80 256 2.0 7.0 0.00 0.00 0.00 69 1020.7
20260830152528 80 251 2.0 10.0 0.00 0.00 0.00 70 1020.7
20260830152028 79 134 4.0 10.0 0.00 0.00 0.00 70 1020.8
20260830151555 79 242 3.0 9.0 0.00 0.00 0.00 68 1020.8
20260830151026 79 234 3.0 10.0 0.00 0.00 0.00 71 1020.7
20260830150528 79 164 4.0 10.0 0.00 0.00 0.00 70 1020.8
20260830150049 79 300 3.0 10.0 0.00 0.00 0.00 72 1020.9
20260830145527 78 267 3.0 10.0 0.00 0.00 0.00 71 1020.9
20260830145029 78 244 3.0 10.0 0.00 0.00 0.00 72 1020.9
20260830144618 78 229 3.0 9.0 0.00 0.00 0.00 73 1020.9
20260830144031 78 270 1.0 9.0 0.00 0.00 0.00 72 1021.1
20260830143526 77 248 1.0 7.0 0.00 0.00 0.00 74 1021.1
20260830143104 77 177 1.0 7.0 0.00 0.00 0.00 77 1021.1
20260830142528 76 219 2.0 6.0 0.00 0.00 0.00 76 1021.3
20260830142029 75 88 2.0 9.0 0.00 0.00 0.00 78 1021.3
20260830141551 75 252 4.0 9.0 0.00 0.00 0.00 77 1021.4
20260830141028 75 303 3.0 8.0 0.00 0.00 0.00 78 1021.5
20260830140528 75 183 3.0 8.0 0.00 0.00 0.00 78 1021.5
20260830140050 74 245 2.0 7.0 0.00 0.00 0.00 79 1021.5
20260830135530 74 252 1.0 7.0 0.00 0.00 0.00 81 1021.6
20260830135029 74 253 2.0 9.0 0.00 0.00 0.00 81 1021.5
20260830134549 73 267 2.0 9.0 0.00 0.00 0.00 81 1021.7
20260830134031 73 226 1.0 7.0 0.00 0.00 0.00 83 1021.7
20260830133526 72 172 3.0 7.0 0.00 0.00 0.00 84 1021.8
20260830133052 72 192 2.0 6.0 0.00 0.00 0.00 86 1021.7
20260830132524 71 183 0.0 5.0 0.00 0.00 0.00 87 1021.9
20260830132029 70 159 0.0 8.0 0.00 0.00 0.00 88 1021.8
20260830131552 70 132 0.0 8.0 0.00 0.00 0.00 88 1021.9
20260830131025 69 254 1.0 4.0 0.00 0.00 0.00 88 1022.0
20260830130529 69 271 2.0 4.0 0.00 0.00 0.00 89 1022.0
20260830130105 69 0 1.0 4.0 0.00 0.00 0.00 89 1022.1
20260830125528 69 231 1.0 4.0 0.00 0.00 0.00 89 1022.1
20260830125025 68 264 1.0 3.0 0.00 0.00 0.00 90 1022.2
20260830124547 68 246 0.0 3.0 0.00 0.00 0.00 91 1022.1
20260830124028 68 268 0.0 4.0 0.00 0.00 0.00 91 1022.2
20260830123525 67 249 1.0 4.0 0.00 0.00 0.00 91 1022.3
20260830123045 67 174 1.0 3.0 0.00 0.00 0.00 92 1022.4
20260830122527 66 192 0.0 3.0 0.00 0.00 0.00 93 1022.3
20260830122025 66 178 0.0 2.0 0.00 0.00 0.00 93 1022.3
20260830121549 66 0 0.0 1.0 0.00 0.00 0.00 94 1022.3
20260830121025 65 0 0.0 1.0 0.00 0.00 0.00 94 1022.3
20260830120525 65 0 0.0 0.0 0.00 0.00 0.00 95 1022.3
20260830120053 64 0 0.0 0.0 0.00 0.00 0.00 95 1022.3
20260830115524 64 0 0.0 0.0 0.00 0.00 0.00 95 1022.4
20260830115025 64 0 0.0 0.0 0.00 0.00 0.00 96 1022.4
20260830114611 63 0 0.0 0.0 0.00 0.00 0.00 96 1022.3
20260830114027 63 0 0.0 0.0 0.00 0.00 0.00 96 1022.2
20260830113530 62 0 0.0 0.0 0.00 0.00 0.00 96 1022.1
20260830113051 62 0 0.0 0.0 0.00 0.00 0.00 96 1022.1
20260830112526 62 0 0.0 0.0 0.00 0.00 0.00 96 1022.3
20260830112025 61 0 0.0 0.0 0.00 0.00 0.00 96 1022.3
20260830111548 61 0 0.0 0.0 0.00 0.00 0.00 96 1022.3
20260830111024 61 0 0.0 0.0 0.00 0.00 0.00 95 1022.2
20260830110524 61 0 0.0 0.0 0.00 0.00 0.00 96 1022.4
20260830110046 60 0 0.0 0.0 0.00 0.00 0.00 95 1022.3
20260830105523 60 0 0.0 0.0 0.00 0.00 0.00 95 1022.3
20260830105024 60 0 0.0 0.0 0.00 0.00 0.00 96 1022.3
20260830104555 60 0 0.0 0.0 0.00 0.00 0.00 96 1022.2
20260830104027 60 0 0.0 0.0 0.00 0.00 0.00 96 1022.2
20260830103529 59 0 0.0 0.0 0.00 0.00 0.00 95 1022.1
20260830103050 59 0 0.0 0.0 0.00 0.00 0.00 95 1022.2
20260830102531 59 0 0.0 0.0 0.00 0.00 0.00 95 1022.1
20260830102032 59 0 0.0 0.0 0.00 0.00 0.00 95 1022.1
20260830101553 59 0 0.0 0.0 0.00 0.00 0.00 95 1022.1
20260830101031 60 0 0.0 0.0 0.00 0.00 0.00 95 1022.2
20260830100528 60 0 0.0 0.0 0.00 0.00 0.00 95 1022.2
20260830100050 60 0 0.0 0.0 0.00 0.00 0.00 95 1022.3
20260830095528 60 0 0.0 0.0 0.00 0.00 0.00 95 1022.2
20260830095026 60 0 0.0 0.0 0.00 0.00 0.00 95 1022.2
20260830094552 60 0 0.0 0.0 0.00 0.00 0.00 95 1022.3
20260830094028 59 0 0.0 0.0 0.00 0.00 0.00 95 1022.2
20260830093528 59 0 0.0 0.0 0.00 0.00 0.00 95 1022.2
20260830093045 59 0 0.0 0.0 0.00 0.00 0.00 95 1022.3
20260830092532 59 0 0.0 0.0 0.00 0.00 0.00 95 1022.2
20260830092028 59 0 0.0 0.0 0.00 0.00 0.00 95 1022.4
20260830091547 59 0 0.0 0.0 0.00 0.00 0.00 95 1022.3
20260830091029 59 0 0.0 0.0 0.00 0.00 0.00 95 1022.2
20260830090529 59 0 0.0 0.0 0.00 0.00 0.00 95 1022.0
20260830090052 59 0 0.0 0.0 0.00 0.00 0.00 95 1022.1
20260830085533 59 0 0.0 0.0 0.00 0.00 0.00 95 1022.0
20260830085032 59 0 0.0 0.0 0.00 0.00 0.00 95 1022.0
20260830084547 59 0 0.0 0.0 0.00 0.00 0.00 95 1022.0
20260830084025 59 0 0.0 0.0 0.00 0.00 0.00 95 1022.1
20260830083525 59 0 0.0 0.0 0.00 0.00 0.00 95 1022.1
20260830083105 59 0 0.0 0.0 0.00 0.00 0.00 95 1022.3
20260830082528 59 0 0.0 0.0 0.00 0.00 0.00 95 1022.4
20260830082028 59 0 0.0 0.0 0.00 0.00 0.00 95 1022.4
20260830081559 59 0 0.0 0.0 0.00 0.00 0.00 95 1022.4
20260830081026 59 0 0.0 0.0 0.00 0.00 0.00 95 1022.5
20260830080528 59 0 0.0 0.0 0.00 0.00 0.00 95 1022.6
20260830080048 59 0 0.0 0.0 0.00 0.00 0.00 95 1022.5
20260830075529 58 0 0.0 0.0 0.00 0.00 0.00 95 1022.4
20260830075028 58 0 0.0 0.0 0.00 0.00 0.00 95 1022.4
20260830074602 58 0 0.0 0.0 0.00 0.00 0.00 95 1022.5
20260830074028 58 0 0.0 0.0 0.00 0.00 0.00 95 1022.4
20260830073528 58 0 0.0 0.0 0.00 0.00 0.00 95 1022.3
20260830073046 58 0 0.0 0.0 0.00 0.00 0.00 95 1022.3
20260830072532 58 0 0.0 0.0 0.00 0.00 0.00 95 1022.4
20260830072025 58 0 0.0 0.0 0.00 0.00 0.00 94 1022.4
20260830071554 58 0 0.0 0.0 0.00 0.00 0.00 95 1022.4
20260830071026 58 0 0.0 0.0 0.00 0.00 0.00 94 1022.5
20260830070526 58 0 0.0 0.0 0.00 0.00 0.00 94 1022.6
20260830070050 58 0 0.0 0.0 0.00 0.00 0.00 94 1022.7
20260830065526 58 0 0.0 0.0 0.00 0.00 0.00 94 1022.7
20260830065026 58 0 0.0 0.0 0.00 0.00 0.00 94 1022.7
20260830064555 58 0 0.0 0.0 0.00 0.00 0.00 95 1022.6
20260830064024 58 0 0.0 0.0 0.00 0.00 0.00 94 1022.7
20260830063524 58 0 0.0 0.0 0.00 0.00 0.00 94 1022.6
20260830063046 59 0 0.0 0.0 0.00 0.00 0.00 94 1022.7
20260830062523 59 0 0.0 0.0 0.00 0.00 0.00 95 1022.8
20260830062028 58 0 0.0 0.0 0.00 0.00 0.00 94 1022.7
20260830061545 58 0 0.0 0.0 0.00 0.00 0.00 94 1022.8
20260830061027 58 0 0.0 0.0 0.00 0.00 0.00 94 1022.8
20260830060527 59 0 0.0 0.0 0.00 0.00 0.00 94 1022.9
20260830060053 59 0 0.0 0.0 0.00 0.00 0.00 94 1023.0
20260830055526 59 0 0.0 0.0 0.00 0.00 0.00 94 1023.0
20260830055028 59 0 0.0 0.0 0.00 0.00 0.00 94 1022.9
20260830054546 59 0 0.0 0.0 0.00 0.00 0.00 94 1022.9
20260830054023 59 0 0.0 0.0 0.00 0.00 0.00 94 1023.0
20260830053524 58 0 0.0 0.0 0.00 0.00 0.00 94 1023.0
20260830053045 58 0 0.0 0.0 0.00 0.00 0.00 93 1022.9
20260830052523 59 0 0.0 0.0 0.00 0.00 0.00 93 1023.0
20260830052031 59 0 0.0 0.0 0.00 0.00 0.00 93 1022.9
20260830051553 59 0 0.0 0.0 0.00 0.00 0.00 93 1022.9
20260830051027 59 0 0.0 0.0 0.00 0.00 0.00 93 1022.8
20260830050526 59 0 0.0 0.0 0.00 0.00 0.00 93 1022.7
20260830050059 59 0 0.0 0.0 0.00 0.00 0.00 93 1022.7
20260830045526 59 0 0.0 0.0 0.00 0.00 0.00 93 1022.6
20260830045024 59 0 0.0 0.0 0.00 0.00 0.00 93 1022.6
20260830044555 59 0 0.0 0.0 0.00 0.00 0.00 92 1022.5
20260830044026 59 0 0.0 0.0 0.00 0.00 0.00 92 1022.5
20260830043524 59 0 0.0 0.0 0.00 0.00 0.00 92 1022.5
20260830043048 60 0 0.0 0.0 0.00 0.00 0.00 92 1022.5
20260830042525 60 0 0.0 0.0 0.00 0.00 0.00 92 1022.6
20260830042025 60 0 0.0 0.0 0.00 0.00 0.00 92 1022.4
20260830041621 60 0 0.0 0.0 0.00 0.00 0.00 92 1022.4
20260830041030 60 0 0.0 0.0 0.00 0.00 0.00 92 1022.3
20260830040527 60 0 0.0 0.0 0.00 0.00 0.00 92 1022.4
20260830040110 60 0 0.0 0.0 0.00 0.00 0.00 91 1022.3
20260830035524 60 0 0.0 0.0 0.00 0.00 0.00 91 1022.3
20260830035024 60 0 0.0 0.0 0.00 0.00 0.00 91 1022.2
20260830034547 60 0 0.0 0.0 0.00 0.00 0.00 91 1022.2